Location: Bretagne
(43.8474°N, 0.4650°W)
Time: 11:08:27
(UTC+00:00)

Cosmos 1833 Rocket - Pass Details

Date: 15 January 2026
Orbit: 831 x 839 km, 71.0° (Epoch: 11 February)

Event Time Altitude Azimuth Distance (km) Brightness Sun altitude
Rises 19:53:18 0° 218° (SW) 3,377 6.3 -32.5°
Reaches altitude 10° 19:55:48 10° 224° (SW) 2,447 5.5 -33.0°
Enters shadow 20:00:20 47° 268° (W) 1,103 3.5 -33.8°
